309  
ASUS41 KGYX 290510  
RWRGYX  
WEATHER ROUNDUP FOR MAINE AND NEW HAMPSHIRE  
NATIONAL WEATHER SERVICE GRAY ME  
100 AM EDT WED MAR 29 2017  
 
MEZ002-005-006-010-012-015-018-020-021-024-026-027-029-290600-  
MAINE  
 
CITY SKY/WX TMP DP RH WIND PRES REMARKS
 
PORTLAND LGT RAIN 35 34 96 VRB3 29.99F  
SANFORD LGT RAIN 34 34 100 N3 29.98F  
BAR HARBOR CLOUDY 33 32 96 CALM 30.00F FOG  
WISCASSET LGT RAIN 35 34 96 CALM 30.01S FOG  
ROCKLAND LGT RAIN N/A N/A N/A NE5 30.00S  
FRYEBURG FOG 34 34 100 CALM 29.98F VSB 1/4  
LEWISTONAUBURN FOG 34 32 93 CALM 29.99F VSB 1/2  
AUGUSTA CLOUDY 34 31 88 CALM 29.99S  
WATERVILLE FOG 33 32 96 CALM 29.97S VSB 1/2  
BANGOR CLOUDY 34 33 96 CALM 30.00S FOG  
GREENVILLE N/A 31 31 100 N3 29.93R  
MILLINOCKET CLOUDY 32 32 100 E3 30.01S FOG  
HOULTON CLOUDY 31 30 96 CALM 29.99F  
PRESQUE ISLE CLOUDY 29 29 100 N3 30.02S  
FRENCHVILLE LGT SNOW 28 25 88 NE8 29.99S VSB 1  
CARIBOU CLOUDY 30 28 92 NE3 30.00S FOG  

 
 
NHZ002-005-008-009-011-012-014-290600-  
NEW HAMPSHIRE  
 
CITY SKY/WX TMP DP RH WIND PRES REMARKS
 
PORTSMOUTH LGT RAIN 36 35 96 N3 29.96F FOG  
ROCHESTER LGT RAIN 35 33 92 MISG 29.96F  
NASHUA LGT RAIN 37 37 100 NW3 29.97F  
MANCHESTER LGT RAIN 37 34 89 N3 29.96F  
CONCORD LGT RAIN 36 34 92 CALM 29.97S FOG  
LACONIA LGT RAIN 34 33 96 CALM 29.97S VSB 1/2  
PLYMOUTH MIX PCPN 34 33 99 CALM 29.97S VSB 3/4  
BERLIN CLOUDY 37 33 85 N6 29.96R  
WHITEFIELD CLOUDY 37 34 89 NE3 29.98R  
JAFFREY CLOUDY 35 34 96 CALM 29.93F FOG  
KEENE CLOUDY 36 36 100 CALM 29.96F FOG  
LEBANON CLOUDY 35 35 100 CALM 29.98S FOG  
MT WASHINGTON FOG 28 28 100 NW30 N/A VSB 1/16WCI 13  

 
 
VTZ005-007-008-290600-  
VERMONT  
 
CITY SKY/WX TMP DP RH WIND PRES REMARKS
 
ST JOHNSBURY N/A 36 35 96 MISG 29.99R  
MONTPELIER CLOUDY 35 35 100 CALM 30.04R  
BURLINGTON MIX PCPN 37 34 89 N5 30.06R  

 
 
MAZ007-012-024-CTZ003-RIZ002-NYZ038-NYZ072-290600-  
SOUTHERN NEW ENGLAND AND NY  
 
CITY SKY/WX TMP DP RH WIND PRES REMARKS
 
BOSTON LGT RAIN 38 38 100 N9 29.96F  
WORCESTER LGT RAIN 34 33 96 NE5 29.91F FOG  
NANTUCKET RAIN 41 39 93 N13 29.87F FOG  
PROVIDENCE LGT RAIN 40 37 89 N10 29.94S  
HARTFORD CLOUDY 40 39 97 N6 29.94S  
ALBANY CLOUDY 40 37 89 N6 30.02S  
NEW YORK CITY CLOUDY 44 41 89 NW6 29.93S  

 
 
ANZ081-ANZ082-ANZ150-NHZ014-MEZ023>029-290600-  
COASTAL MARINE OBSERVATIONS  
 
STATION/POSITION TIME TEMP WIND PRES WAVE
 
AIR SEA DIR/SP/G HT/PER  
(UTC) (F) (DEG/KT/KT) (MB) (FT/S)  
MOUNT DESERT ROC 0500 37 1015.7F  
MATINICUS ROCK 0400 37 90/ 3/ 3 1015.1R  
ISLE OF SHOALS 0400 37 10/ 12/ 12 1014.9F  
JEFFREYS LEDGE 0406 41 N/A 3/ 8  
CASHES LEDGE BUO 0450 37 40 1014.9F 3/ 6  
GEORGES BANK BUO 0450 40 40 1012.5F 4/ 7  

 
   
............KEY...........
 
 
WCI - WIND CHILL  
TC - TEMPERATURE IN CELSIUS  
VSB - VISIBILITY
IN MILES  
HX - HEAT INDEX  
FAIR- INDICATES FEW OR NO CLOUDS BELOW 12,000 FT, WITH NO  
SIGNIFICANT WEATHER AND/OR S TO VISIBILITY.  
 
 
 
CLICK HERE TO GO TO PREVIOUS BULLETINS.

The Nexlab ME Page
The Nexlab NH Page Main Text Page